Time,TemperatureF,DewpointF,PressureIn,WindDirection,WindDirectionDegrees,WindSpeedMPH,WindSpeedGustMPH,Humidity,HourlyPrecipIn,Conditions,Clouds,dailyrainin,SoftwareType,DateUTC
2012-03-07 00:00:00,62.2,42.9,30.03,East,87,3.1,4.5,49,0.00,,,0.00,VWS V13.01,2012-03-07 06:00:00,
2012-03-07 00:05:00,62.2,42.9,30.03,East,95,4.9,5.8,49,0.00,,,0.00,VWS V13.01,2012-03-07 06:05:00,
2012-03-07 00:10:00,62.4,43.0,30.03,ESE,115,2.7,4.0,49,0.00,,,0.00,VWS V13.01,2012-03-07 06:10:00,
2012-03-07 00:15:00,62.6,42.7,30.03,SE,124,5.4,6.3,48,0.00,,,0.00,VWS V13.01,2012-03-07 06:15:00,
2012-03-07 00:20:00,62.8,42.8,30.03,East,79,5.8,6.3,48,0.00,,,0.00,VWS V13.01,2012-03-07 06:20:00,
2012-03-07 00:25:00,62.8,42.8,30.03,ESE,108,3.6,3.6,48,0.00,,,0.00,VWS V13.01,2012-03-07 06:25:00,
2012-03-07 00:30:00,62.6,42.7,30.06,SE,125,4.0,8.3,48,0.00,,,0.00,VWS V13.01,2012-03-07 06:30:00,
2012-03-07 00:35:00,62.8,43.4,30.06,SE,124,5.4,5.4,49,0.00,,,0.00,VWS V13.01,2012-03-07 06:35:00,
2012-03-07 00:40:00,62.8,43.4,30.06,SE,125,5.4,5.8,49,0.00,,,0.00,VWS V13.01,2012-03-07 06:40:00,
2012-03-07 00:45:00,63.0,43.5,30.06,ENE,77,6.3,6.3,49,0.00,,,0.00,VWS V13.01,2012-03-07 06:45:00,
2012-03-07 00:50:00,63.0,43.5,30.06,SE,129,5.4,6.3,49,0.00,,,0.00,VWS V13.01,2012-03-07 06:50:00,
2012-03-07 00:55:00,63.0,43.5,30.06,East,87,4.0,5.4,49,0.00,,,0.00,VWS V13.01,2012-03-07 06:55:00,
2012-03-07 01:00:00,62.8,43.4,30.06,ESE,119,5.4,5.4,49,0.00,,,0.00,VWS V13.01,2012-03-07 07:00:00,
2012-03-07 01:05:00,62.6,43.7,30.06,ESE,120,3.1,4.0,50,0.00,,,0.00,VWS V13.01,2012-03-07 07:05:00,
2012-03-07 01:10:00,62.6,43.7,30.06,ESE,117,5.8,5.8,50,0.00,,,0.00,VWS V13.01,2012-03-07 07:10:00,
2012-03-07 01:15:00,62.6,43.7,30.06,ESE,112,4.0,4.9,50,0.00,,,0.00,VWS V13.01,2012-03-07 07:15:00,
2012-03-07 01:20:00,62.6,43.7,30.06,ESE,117,3.6,3.6,50,0.00,,,0.00,VWS V13.01,2012-03-07 07:20:00,
2012-03-07 01:25:00,62.8,43.9,30.06,ESE,111,3.6,3.6,50,0.00,,,0.00,VWS V13.01,2012-03-07 07:25:00,
2012-03-07 01:30:00,62.8,44.4,30.06,East,80,7.6,7.6,51,0.00,,,0.00,VWS V13.01,2012-03-07 07:30:00,
2012-03-07 01:33:00,62.8,43.9,30.06,ESE,115,4.9,6.3,50,0.00,,,0.00,VWS V13.01,2012-03-07 07:33:00,
2012-03-07 01:38:00,62.8,44.4,30.06,ESE,117,3.6,3.6,51,0.00,,,0.00,VWS V13.01,2012-03-07 07:38:00,
2012-03-07 01:43:00,62.8,44.4,30.06,ESE,110,2.7,3.1,51,0.00,,,0.00,VWS V13.01,2012-03-07 07:43:00,
2012-03-07 01:48:00,62.8,44.4,30.06,South,174,2.7,3.6,51,0.00,,,0.00,VWS V13.01,2012-03-07 07:48:00,
2012-03-07 01:53:00,62.8,44.4,30.06,East,86,4.0,6.3,51,0.00,,,0.00,VWS V13.01,2012-03-07 07:53:00,
2012-03-07 01:58:00,62.8,44.4,30.06,ESE,115,3.1,4.0,51,0.00,,,0.00,VWS V13.01,2012-03-07 07:58:00,
2012-03-07 02:03:00,62.8,44.4,30.06,ENE,74,0.0,0.0,51,0.00,,,0.00,VWS V13.01,2012-03-07 08:03:00,
2012-03-07 02:08:00,62.6,44.8,30.06,ESE,103,5.4,5.4,52,0.00,,,0.00,VWS V13.01,2012-03-07 08:08:00,
2012-03-07 02:13:00,62.8,45.4,30.06,South,180,7.2,7.2,53,0.00,,,0.00,VWS V13.01,2012-03-07 08:13:00,
2012-03-07 02:18:00,63.1,45.8,30.06,SSE,147,6.3,8.7,53,0.00,,,0.00,VWS V13.01,2012-03-07 08:18:00,
2012-03-07 02:23:00,63.3,45.4,30.06,East,84,4.9,8.3,52,0.00,,,0.00,VWS V13.01,2012-03-07 08:23:00,
2012-03-07 02:28:00,63.1,45.2,30.06,ESE,102,2.7,3.1,52,0.00,,,0.00,VWS V13.01,2012-03-07 08:28:00,
2012-03-07 02:33:00,63.1,45.8,30.06,ESE,110,2.7,5.4,53,0.00,,,0.00,VWS V13.01,2012-03-07 08:33:00,
2012-03-07 02:38:00,63.0,45.6,30.06,ESE,103,5.8,7.2,53,0.00,,,0.00,VWS V13.01,2012-03-07 08:38:00,
2012-03-07 02:43:00,63.1,45.8,30.06,South,188,8.7,8.7,53,0.00,,,0.00,VWS V13.01,2012-03-07 08:43:00,
2012-03-07 02:48:00,63.3,45.9,30.06,SSE,147,5.8,5.8,53,0.00,,,0.00,VWS V13.01,2012-03-07 08:48:00,
2012-03-07 02:53:00,63.3,45.9,30.06,ESE,121,6.3,7.2,53,0.00,,,0.00,VWS V13.01,2012-03-07 08:53:00,
2012-03-07 02:58:00,63.3,45.9,30.06,ESE,112,5.4,8.1,53,0.00,,,0.00,VWS V13.01,2012-03-07 08:58:00,
2012-03-07 03:03:00,63.5,46.1,30.06,ESE,122,5.8,10.1,53,0.00,,,0.00,VWS V13.01,2012-03-07 09:03:00,
2012-03-07 03:08:00,63.5,46.1,30.06,SE,134,6.3,8.7,53,0.00,,,0.00,VWS V13.01,2012-03-07 09:08:00,
2012-03-07 03:13:00,63.3,45.9,30.06,South,173,6.7,6.7,53,0.00,,,0.00,VWS V13.01,2012-03-07 09:13:00,
2012-03-07 03:18:00,63.5,46.1,30.06,ESE,114,6.3,6.3,53,0.00,,,0.00,VWS V13.01,2012-03-07 09:18:00,
2012-03-07 03:23:00,63.5,46.1,30.06,ESE,119,4.0,4.9,53,0.00,,,0.00,VWS V13.01,2012-03-07 09:23:00,
2012-03-07 03:28:00,63.3,45.9,30.06,ESE,116,6.3,6.3,53,0.00,,,0.00,VWS V13.01,2012-03-07 09:28:00,
2012-03-07 03:33:00,63.3,45.9,30.06,SSE,153,3.1,3.1,53,0.00,,,0.00,VWS V13.01,2012-03-07 09:33:00,
2012-03-07 03:38:00,63.3,45.9,30.06,East,100,6.3,6.3,53,0.00,,,0.00,VWS V13.01,2012-03-07 09:38:00,
2012-03-07 03:43:00,63.1,46.2,30.06,SE,133,3.1,8.1,54,0.00,,,0.00,VWS V13.01,2012-03-07 09:43:00,
2012-03-07 03:48:00,63.1,46.2,30.06,East,87,2.7,3.6,54,0.00,,,0.00,VWS V13.01,2012-03-07 09:48:00,
2012-03-07 03:53:00,63.1,46.2,30.06,ESE,122,5.4,5.4,54,0.00,,,0.00,VWS V13.01,2012-03-07 09:53:00,
2012-03-07 03:58:00,63.0,46.1,30.06,ESE,104,4.0,4.0,54,0.00,,,0.00,VWS V13.01,2012-03-07 09:58:00,
2012-03-07 04:03:00,63.0,46.1,30.06,East,92,3.1,3.1,54,0.00,,,0.00,VWS V13.01,2012-03-07 10:03:00,
2012-03-07 04:08:00,63.0,46.1,30.06,ESE,119,4.0,4.0,54,0.00,,,0.00,VWS V13.01,2012-03-07 10:08:00,
2012-03-07 04:13:00,62.8,45.9,30.06,ESE,121,2.7,2.7,54,0.00,,,0.00,VWS V13.01,2012-03-07 10:13:00,
2012-03-07 04:18:00,63.0,46.1,30.06,East,96,3.6,3.6,54,0.00,,,0.00,VWS V13.01,2012-03-07 10:18:00,
2012-03-07 04:23:00,63.0,46.1,30.06,East,98,5.8,5.8,54,0.00,,,0.00,VWS V13.01,2012-03-07 10:23:00,
2012-03-07 04:28:00,63.0,46.1,30.06,East,87,3.1,5.4,54,0.00,,,0.00,VWS V13.01,2012-03-07 10:28:00,
2012-03-07 04:33:00,62.8,45.9,30.06,East,86,3.6,4.0,54,0.00,,,0.00,VWS V13.01,2012-03-07 10:33:00,
2012-03-07 04:38:00,62.8,45.9,30.06,SE,139,4.0,4.0,54,0.00,,,0.00,VWS V13.01,2012-03-07 10:38:00,
2012-03-07 04:43:00,62.8,45.9,30.06,ESE,119,4.0,4.0,54,0.00,,,0.00,VWS V13.01,2012-03-07 10:43:00,
2012-03-07 04:48:00,63.1,46.2,30.06,SE,135,2.7,3.6,54,0.00,,,0.00,VWS V13.01,2012-03-07 10:48:00,
2012-03-07 04:53:00,63.1,46.2,30.06,East,89,5.8,5.8,54,0.00,,,0.00,VWS V13.01,2012-03-07 10:53:00,
2012-03-07 04:58:00,63.0,46.1,30.06,ENE,70,3.6,4.5,54,0.00,,,0.00,VWS V13.01,2012-03-07 10:58:00,
2012-03-07 05:03:00,62.8,45.9,30.06,ENE,75,3.6,4.0,54,0.00,,,0.00,VWS V13.01,2012-03-07 11:03:00,
2012-03-07 05:08:00,62.6,45.2,30.06,East,89,2.7,4.9,53,0.00,,,0.00,VWS V13.01,2012-03-07 11:08:00,
2012-03-07 05:13:00,62.4,45.6,30.06,ENE,73,2.2,2.7,54,0.00,,,0.00,VWS V13.01,2012-03-07 11:13:00,
2012-03-07 05:18:00,62.2,45.4,30.06,ESE,115,4.0,4.0,54,0.00,,,0.00,VWS V13.01,2012-03-07 11:18:00,
2012-03-07 05:23:00,62.1,45.2,30.06,ENE,62,2.2,3.6,54,0.00,,,0.00,VWS V13.01,2012-03-07 11:23:00,
2012-03-07 05:28:00,62.1,45.7,30.06,East,95,0.0,0.0,55,0.00,,,0.00,VWS V13.01,2012-03-07 11:28:00,
2012-03-07 05:33:00,62.1,45.2,30.06,ESE,120,0.0,2.2,54,0.00,,,0.00,VWS V13.01,2012-03-07 11:33:00,
2012-03-07 05:38:00,62.1,45.2,30.06,ESE,108,3.6,3.6,54,0.00,,,0.00,VWS V13.01,2012-03-07 11:38:00,
2012-03-07 05:43:00,62.1,45.2,30.06,SE,131,4.0,4.0,54,0.00,,,0.00,VWS V13.01,2012-03-07 11:43:00,
2012-03-07 05:48:00,62.1,45.7,30.06,ESE,110,2.7,3.1,55,0.00,,,0.00,VWS V13.01,2012-03-07 11:48:00,
2012-03-07 05:53:00,62.1,45.7,30.06,ESE,102,2.7,3.6,55,0.00,,,0.00,VWS V13.01,2012-03-07 11:53:00,
2012-03-07 05:58:00,62.2,45.9,30.06,SSE,156,3.6,3.6,55,0.00,,,0.00,VWS V13.01,2012-03-07 11:58:00,
2012-03-07 06:03:00,62.2,45.9,30.09,East,89,8.1,8.1,55,0.00,,,0.00,VWS V13.01,2012-03-07 12:03:00,
2012-03-07 06:08:00,62.6,45.7,30.09,SE,129,5.8,7.6,54,0.00,,,0.00,VWS V13.01,2012-03-07 12:08:00,
2012-03-07 06:13:00,62.6,45.7,30.09,East,87,5.4,5.4,54,0.00,,,0.00,VWS V13.01,2012-03-07 12:13:00,
2012-03-07 06:18:00,62.6,45.7,30.09,East,94,4.0,5.8,54,0.00,,,0.00,VWS V13.01,2012-03-07 12:18:00,
2012-03-07 06:23:00,62.4,46.1,30.09,ESE,106,2.7,2.7,55,0.00,,,0.00,VWS V13.01,2012-03-07 12:23:00,
2012-03-07 06:28:00,62.4,46.1,30.09,ESE,115,3.6,3.6,55,0.00,,,0.00,VWS V13.01,2012-03-07 12:28:00,
2012-03-07 06:33:00,62.2,45.9,30.09,SE,128,5.8,5.8,55,0.00,,,0.00,VWS V13.01,2012-03-07 12:33:00,
2012-03-07 06:38:00,62.2,46.4,30.09,East,91,7.6,7.6,56,0.00,,,0.00,VWS V13.01,2012-03-07 12:38:00,
2012-03-07 06:43:00,62.2,46.4,30.09,ESE,117,5.4,5.4,56,0.00,,,0.00,VWS V13.01,2012-03-07 12:43:00,
2012-03-07 06:48:00,62.1,46.2,30.06,ESE,114,6.3,8.7,56,0.00,,,0.00,VWS V13.01,2012-03-07 12:48:00,
2012-03-07 06:53:00,62.1,46.7,30.06,ESE,105,10.1,10.1,57,0.00,,,0.00,VWS V13.01,2012-03-07 12:53:00,
2012-03-07 06:58:00,61.9,46.5,30.06,East,99,8.3,8.3,57,0.00,,,0.00,VWS V13.01,2012-03-07 12:58:00,
2012-03-07 07:03:00,61.9,46.5,30.06,SE,131,4.9,4.9,57,0.00,,,0.00,VWS V13.01,2012-03-07 13:03:00,
2012-03-07 07:08:00,61.9,47.0,30.06,ESE,109,5.8,5.8,58,0.00,,,0.00,VWS V13.01,2012-03-07 13:08:00,
2012-03-07 07:13:00,61.9,47.0,30.06,SE,127,6.3,6.3,58,0.00,,,0.00,VWS V13.01,2012-03-07 13:13:00,
2012-03-07 07:18:00,61.9,47.4,30.09,SSE,147,7.6,7.6,59,0.00,,,0.00,VWS V13.01,2012-03-07 13:18:00,
2012-03-07 07:23:00,61.9,47.4,30.09,ESE,118,7.2,8.3,59,0.00,,,0.00,VWS V13.01,2012-03-07 13:23:00,
2012-03-07 07:28:00,61.9,47.4,30.09,East,91,8.1,8.1,59,0.00,,,0.00,VWS V13.01,2012-03-07 13:28:00,
2012-03-07 07:33:00,61.9,47.4,30.06,ESE,111,2.7,3.1,59,0.00,,,0.00,VWS V13.01,2012-03-07 13:33:00,
2012-03-07 07:38:00,61.9,47.4,30.06,ESE,102,6.3,6.3,59,0.00,,,0.00,VWS V13.01,2012-03-07 13:38:00,
2012-03-07 07:43:00,61.9,47.4,30.06,ENE,73,3.6,5.8,59,0.00,,,0.00,VWS V13.01,2012-03-07 13:43:00,
2012-03-07 07:48:00,62.1,48.0,30.06,ESE,108,3.6,6.7,60,0.00,,,0.00,VWS V13.01,2012-03-07 13:48:00,
2012-03-07 07:53:00,61.9,47.9,30.06,ESE,113,2.7,7.6,60,0.00,,,0.00,VWS V13.01,2012-03-07 13:53:00,
2012-03-07 07:58:00,61.9,47.9,30.06,SSE,150,7.6,7.6,60,0.00,,,0.00,VWS V13.01,2012-03-07 13:58:00,
2012-03-07 08:03:00,61.9,47.9,30.09,ENE,77,4.0,5.4,60,0.00,,,0.00,VWS V13.01,2012-03-07 14:03:00,
2012-03-07 08:08:00,61.9,48.3,30.09,East,101,6.7,6.7,61,0.00,,,0.00,VWS V13.01,2012-03-07 14:08:00,
2012-03-07 08:13:00,62.1,48.5,30.09,ESE,118,5.8,6.3,61,0.00,,,0.00,VWS V13.01,2012-03-07 14:13:00,
2012-03-07 08:18:00,62.1,48.5,30.06,ESE,104,10.5,12.8,61,0.00,,,0.00,VWS V13.01,2012-03-07 14:18:00,
2012-03-07 08:23:00,62.2,48.6,30.06,ESE,112,6.3,9.2,61,0.00,,,0.00,VWS V13.01,2012-03-07 14:23:00,
2012-03-07 08:28:00,62.2,48.6,30.06,East,84,3.1,3.1,61,0.00,,,0.00,VWS V13.01,2012-03-07 14:28:00,
2012-03-07 08:33:00,62.2,48.6,30.06,East,83,5.8,5.8,61,0.00,,,0.00,VWS V13.01,2012-03-07 14:33:00,
2012-03-07 08:38:00,62.2,48.6,30.06,ESE,107,5.4,7.6,61,0.00,,,0.00,VWS V13.01,2012-03-07 14:38:00,
2012-03-07 08:43:00,62.2,48.6,30.06,SSE,147,8.7,8.7,61,0.00,,,0.00,VWS V13.01,2012-03-07 14:43:00,
2012-03-07 08:48:00,62.2,48.6,30.09,ESE,120,7.6,7.6,61,0.00,,,0.00,VWS V13.01,2012-03-07 14:48:00,
2012-03-07 08:53:00,62.2,48.6,30.09,South,169,8.7,12.8,61,0.00,,,0.00,VWS V13.01,2012-03-07 14:53:00,
2012-03-07 08:58:00,62.2,49.1,30.09,SE,133,10.5,10.5,62,0.00,,,0.00,VWS V13.01,2012-03-07 14:58:00,
2012-03-07 09:03:00,62.4,49.2,30.09,ESE,120,6.3,8.7,62,0.00,,,0.00,VWS V13.01,2012-03-07 15:03:00,
2012-03-07 09:08:00,62.4,49.2,30.09,ESE,123,5.4,5.8,62,0.00,,,0.00,VWS V13.01,2012-03-07 15:08:00,
2012-03-07 09:13:00,62.4,49.2,30.09,SE,140,3.6,5.8,62,0.00,,,0.00,VWS V13.01,2012-03-07 15:13:00,
2012-03-07 09:18:00,62.6,49.4,30.09,SSE,150,7.6,8.7,62,0.00,,,0.00,VWS V13.01,2012-03-07 15:18:00,
2012-03-07 09:23:00,62.6,49.4,30.09,SSE,151,5.8,6.7,62,0.00,,,0.00,VWS V13.01,2012-03-07 15:23:00,
2012-03-07 09:28:00,62.8,49.6,30.09,SE,132,6.7,11.0,62,0.00,,,0.00,VWS V13.01,2012-03-07 15:28:00,
2012-03-07 09:33:00,62.8,49.6,30.09,SW,233,8.1,8.1,62,0.00,,,0.00,VWS V13.01,2012-03-07 15:33:00,
2012-03-07 09:38:00,62.6,49.8,30.09,East,82,6.3,7.6,63,0.00,,,0.00,VWS V13.01,2012-03-07 15:38:00,
2012-03-07 09:43:00,62.6,50.3,30.09,East,93,7.6,8.1,64,0.00,,,0.00,VWS V13.01,2012-03-07 15:43:00,
2012-03-07 09:48:00,63.0,50.6,30.06,ESE,117,8.3,8.3,64,0.00,,,0.00,VWS V13.01,2012-03-07 15:48:00,
2012-03-07 09:53:00,63.1,50.8,30.06,ESE,116,2.7,5.4,64,0.00,,,0.00,VWS V13.01,2012-03-07 15:53:00,
2012-03-07 09:58:00,63.3,50.5,30.06,ESE,122,4.0,6.3,63,0.00,,,0.00,VWS V13.01,2012-03-07 15:58:00,
2012-03-07 10:03:00,63.7,50.9,30.06,ESE,108,5.4,9.2,63,0.00,,,0.00,VWS V13.01,2012-03-07 16:03:00,
2012-03-07 10:08:00,64.2,50.9,30.06,ESE,117,6.3,11.0,62,0.00,,,0.00,VWS V13.01,2012-03-07 16:08:00,
2012-03-07 10:13:00,64.9,51.2,30.06,ESE,119,6.3,11.0,61,0.00,,,0.00,VWS V13.01,2012-03-07 16:13:00,
2012-03-07 10:18:00,65.7,51.4,30.06,SE,134,5.4,8.3,60,0.00,,,0.00,VWS V13.01,2012-03-07 16:18:00,
2012-03-07 10:23:00,66.2,51.5,30.06,ESE,122,3.6,5.8,59,0.00,,,0.00,VWS V13.01,2012-03-07 16:23:00,
2012-03-07 10:28:00,66.6,51.3,30.06,ESE,117,12.3,12.3,58,0.00,,,0.00,VWS V13.01,2012-03-07 16:28:00,
2012-03-07 10:33:00,66.7,51.0,30.06,SE,127,5.8,8.3,57,0.00,,,0.00,VWS V13.01,2012-03-07 16:33:00,
2012-03-07 10:38:00,66.7,50.6,30.06,South,170,17.4,17.4,56,0.00,,,0.00,VWS V13.01,2012-03-07 16:38:00,
2012-03-07 10:43:00,66.6,51.3,30.06,SE,127,10.5,10.5,58,0.00,,,0.00,VWS V13.01,2012-03-07 16:43:00,
2012-03-07 10:48:00,66.6,51.3,30.06,SE,124,8.7,10.5,58,0.00,,,0.00,VWS V13.01,2012-03-07 16:48:00,
2012-03-07 10:53:00,66.9,51.7,30.06,SSE,164,6.3,7.6,58,0.00,,,0.00,VWS V13.01,2012-03-07 16:53:00,
2012-03-07 10:58:00,67.6,50.9,30.06,ESE,108,14.1,15.0,55,0.00,,,0.00,VWS V13.01,2012-03-07 16:58:00,
2012-03-07 11:03:00,67.6,50.9,30.06,SSE,165,10.5,12.3,55,0.00,,,0.00,VWS V13.01,2012-03-07 17:03:00,
2012-03-07 11:08:00,68.2,51.9,30.06,SE,132,8.1,11.0,56,0.00,,,0.00,VWS V13.01,2012-03-07 17:08:00,
2012-03-07 11:13:00,68.2,50.4,30.06,South,175,9.2,15.4,53,0.00,,,0.00,VWS V13.01,2012-03-07 17:13:00,
2012-03-07 11:18:00,68.0,50.8,30.03,SSE,156,11.0,14.1,54,0.00,,,0.00,VWS V13.01,2012-03-07 17:18:00,
2012-03-07 11:23:00,68.4,51.1,30.03,ESE,118,10.5,11.0,54,0.00,,,0.00,VWS V13.01,2012-03-07 17:23:00,
2012-03-07 11:28:00,68.4,50.6,30.03,SSE,154,8.7,11.0,53,0.00,,,0.00,VWS V13.01,2012-03-07 17:28:00,
2012-03-07 11:33:00,68.2,50.9,30.03,SSE,167,12.3,12.3,54,0.00,,,0.00,VWS V13.01,2012-03-07 17:33:00,
2012-03-07 11:39:00,68.4,51.1,30.03,SSE,162,8.1,8.7,54,0.00,,,0.00,VWS V13.01,2012-03-07 17:39:00,
2012-03-07 11:44:00,68.4,50.6,30.03,ESE,121,7.6,10.1,53,0.00,,,0.00,VWS V13.01,2012-03-07 17:44:00,
2012-03-07 11:49:00,68.0,50.8,30.03,SE,131,12.3,12.3,54,0.00,,,0.00,VWS V13.01,2012-03-07 17:49:00,
2012-03-07 11:54:00,68.4,51.1,30.03,SSE,150,6.7,8.1,54,0.00,,,0.00,VWS V13.01,2012-03-07 17:54:00,
2012-03-07 11:59:00,68.5,51.2,30.03,ESE,119,6.3,8.7,54,0.00,,,0.00,VWS V13.01,2012-03-07 17:59:00,
2012-03-07 12:04:00,69.3,51.9,30.03,ESE,120,6.3,6.3,54,0.00,,,0.00,VWS V13.01,2012-03-07 18:04:00,
2012-03-07 12:08:00,68.9,51.1,30.03,SE,132,5.4,11.0,53,0.00,,,0.00,VWS V13.01,2012-03-07 18:08:00,
2012-03-07 12:13:00,68.9,51.6,30.03,SSE,158,5.4,12.8,54,0.00,,,0.00,VWS V13.01,2012-03-07 18:13:00,
2012-03-07 12:18:00,68.9,51.1,30.03,ESE,119,5.8,13.2,53,0.00,,,0.00,VWS V13.01,2012-03-07 18:18:00,
2012-03-07 12:24:00,69.1,51.2,30.03,East,101,8.3,8.3,53,0.00,,,0.00,VWS V13.01,2012-03-07 18:24:00,
2012-03-07 12:29:00,68.9,51.1,30.03,ENE,73,7.6,7.6,53,0.00,,,0.00,VWS V13.01,2012-03-07 18:29:00,
2012-03-07 12:34:00,69.1,51.2,30.03,ESE,116,8.3,10.1,53,0.00,,,0.00,VWS V13.01,2012-03-07 18:34:00,
2012-03-07 12:39:00,68.9,51.1,30.03,South,171,12.8,15.4,53,0.00,,,0.00,VWS V13.01,2012-03-07 18:39:00,
2012-03-07 12:44:00,68.9,51.6,30.00,SE,133,5.8,7.2,54,0.00,,,0.00,VWS V13.01,2012-03-07 18:44:00,
2012-03-07 12:49:00,69.4,52.1,30.00,ESE,105,5.8,5.8,54,0.00,,,0.00,VWS V13.01,2012-03-07 18:49:00,
2012-03-07 12:54:00,69.8,51.4,30.00,SSE,147,4.0,4.0,52,0.00,,,0.00,VWS V13.01,2012-03-07 18:54:00,
2012-03-07 12:59:00,69.8,50.3,30.00,SE,140,5.8,11.0,50,0.00,,,0.00,VWS V13.01,2012-03-07 18:59:00,
2012-03-07 13:04:00,70.2,50.7,30.00,ESE,117,4.0,4.0,50,0.00,,,0.00,VWS V13.01,2012-03-07 19:04:00,
2012-03-07 13:09:00,70.3,49.2,30.00,South,180,15.0,15.0,47,0.00,,,0.00,VWS V13.01,2012-03-07 19:09:00,
2012-03-07 13:14:00,70.2,49.0,30.00,South,179,12.8,12.8,47,0.00,,,0.00,VWS V13.01,2012-03-07 19:14:00,
2012-03-07 13:19:00,70.2,49.0,30.00,SE,132,8.3,8.3,47,0.00,,,0.00,VWS V13.01,2012-03-07 19:19:00,
2012-03-07 13:24:00,70.0,49.4,30.00,ESE,122,6.3,6.3,48,0.00,,,0.00,VWS V13.01,2012-03-07 19:24:00,
2012-03-07 13:29:00,69.8,49.2,30.00,SE,130,5.8,8.7,48,0.00,,,0.00,VWS V13.01,2012-03-07 19:29:00,
2012-03-07 13:34:00,69.8,49.2,30.00,South,171,4.0,8.3,48,0.00,,,0.00,VWS V13.01,2012-03-07 19:34:00,
2012-03-07 13:39:00,69.8,49.2,30.00,SE,124,5.4,8.7,48,0.00,,,0.00,VWS V13.01,2012-03-07 19:39:00,
2012-03-07 13:44:00,69.8,48.7,30.00,East,85,8.3,8.3,47,0.00,,,0.00,VWS V13.01,2012-03-07 19:44:00,
2012-03-07 13:49:00,69.6,49.1,30.00,ESE,118,5.4,7.6,48,0.00,,,0.00,VWS V13.01,2012-03-07 19:49:00,
2012-03-07 13:54:00,69.6,49.6,30.00,ESE,117,5.8,7.6,49,0.00,,,0.00,VWS V13.01,2012-03-07 19:54:00,
2012-03-07 13:59:00,69.6,49.6,30.00,SE,143,3.6,4.9,49,0.00,,,0.00,VWS V13.01,2012-03-07 19:59:00,
2012-03-07 14:04:00,69.4,50.0,30.00,SE,131,2.2,4.0,50,0.00,,,0.00,VWS V13.01,2012-03-07 20:04:00,
2012-03-07 14:09:00,69.3,49.8,30.00,East,101,5.8,5.8,50,0.00,,,0.00,VWS V13.01,2012-03-07 20:09:00,
2012-03-07 14:14:00,69.3,50.4,30.00,SE,128,6.3,7.6,51,0.00,,,0.00,VWS V13.01,2012-03-07 20:14:00,
2012-03-07 14:19:00,69.3,50.4,30.00,SE,138,5.8,6.7,51,0.00,,,0.00,VWS V13.01,2012-03-07 20:19:00,
2012-03-07 14:24:00,69.3,50.9,30.00,SE,126,6.3,6.3,52,0.00,,,0.00,VWS V13.01,2012-03-07 20:24:00,
2012-03-07 14:29:00,69.3,50.9,30.00,SE,133,6.3,7.6,52,0.00,,,0.00,VWS V13.01,2012-03-07 20:29:00,
2012-03-07 14:34:00,69.4,51.6,29.97,ESE,122,8.1,8.1,53,0.00,,,0.00,VWS V13.01,2012-03-07 20:34:00,
2012-03-07 14:39:00,69.4,51.1,29.97,ESE,115,5.4,10.1,52,0.00,,,0.00,VWS V13.01,2012-03-07 20:39:00,
2012-03-07 14:44:00,69.4,51.1,29.97,ESE,123,8.1,8.1,52,0.00,,,0.00,VWS V13.01,2012-03-07 20:44:00,
2012-03-07 14:49:00,69.4,51.6,29.97,ESE,122,8.1,10.1,53,0.00,,,0.00,VWS V13.01,2012-03-07 20:49:00,
2012-03-07 14:54:00,69.3,51.4,29.97,ESE,111,6.3,8.7,53,0.00,,,0.00,VWS V13.01,2012-03-07 20:54:00,
2012-03-07 14:59:00,69.3,51.4,29.97,ESE,115,5.4,6.7,53,0.00,,,0.00,VWS V13.01,2012-03-07 20:59:00,
2012-03-07 15:04:00,69.1,51.2,29.97,SE,128,3.1,4.9,53,0.00,,,0.00,VWS V13.01,2012-03-07 21:04:00,
2012-03-07 15:09:00,69.1,51.2,29.97,East,93,5.4,6.3,53,0.00,,,0.00,VWS V13.01,2012-03-07 21:09:00,
2012-03-07 15:14:00,69.1,51.8,29.97,East,79,3.6,4.0,54,0.00,,,0.00,VWS V13.01,2012-03-07 21:14:00,
2012-03-07 15:19:00,69.1,51.8,29.97,East,98,3.1,3.6,54,0.00,,,0.00,VWS V13.01,2012-03-07 21:19:00,
2012-03-07 15:24:00,69.1,51.8,29.97,East,95,2.2,3.6,54,0.00,,,0.00,VWS V13.01,2012-03-07 21:24:00,
2012-03-07 15:29:00,68.9,51.6,29.97,East,95,2.7,4.9,54,0.00,,,0.00,VWS V13.01,2012-03-07 21:29:00,
2012-03-07 15:34:00,68.9,52.1,29.97,ESE,117,5.4,5.4,55,0.00,,,0.00,VWS V13.01,2012-03-07 21:34:00,
2012-03-07 15:39:00,68.9,51.6,29.97,ESE,118,3.1,3.6,54,0.00,,,0.00,VWS V13.01,2012-03-07 21:39:00,
2012-03-07 15:44:00,68.9,51.6,29.97,SE,124,5.4,5.4,54,0.00,,,0.00,VWS V13.01,2012-03-07 21:44:00,
2012-03-07 15:49:00,68.9,51.6,29.97,ESE,119,4.0,4.9,54,0.00,,,0.00,VWS V13.01,2012-03-07 21:49:00,
2012-03-07 15:54:00,68.9,51.6,29.97,ESE,123,3.1,4.0,54,0.00,,,0.00,VWS V13.01,2012-03-07 21:54:00,
2012-03-07 15:59:00,68.9,51.6,29.97,ESE,116,3.6,3.6,54,0.00,,,0.00,VWS V13.01,2012-03-07 21:59:00,
2012-03-07 16:04:00,68.9,51.6,29.97,SSE,150,0.0,0.0,54,0.00,,,0.00,VWS V13.01,2012-03-07 22:04:00,
2012-03-07 16:09:00,68.7,51.4,29.97,East,95,0.0,0.0,54,0.00,,,0.00,VWS V13.01,2012-03-07 22:09:00,
2012-03-07 16:14:00,68.7,51.4,29.94,ENE,76,0.0,0.0,54,0.00,,,0.00,VWS V13.01,2012-03-07 22:14:00,
2012-03-07 16:19:00,68.7,51.4,29.94,ENE,75,0.0,0.0,54,0.00,,,0.00,VWS V13.01,2012-03-07 22:19:00,
2012-03-07 16:24:00,68.5,51.8,29.94,ENE,76,0.0,0.0,55,0.00,,,0.00,VWS V13.01,2012-03-07 22:24:00,
2012-03-07 16:29:00,68.5,51.8,29.97,ENE,76,0.0,0.0,55,0.00,,,0.00,VWS V13.01,2012-03-07 22:29:00,
2012-03-07 16:34:00,68.4,52.1,29.97,NE,40,0.0,0.0,56,0.00,,,0.00,VWS V13.01,2012-03-07 22:34:00,
2012-03-07 16:39:00,68.2,51.4,29.97,NE,35,0.0,0.0,55,0.00,,,0.00,VWS V13.01,2012-03-07 22:39:00,
2012-03-07 16:44:00,68.0,51.2,29.94,ENE,69,0.0,0.0,55,0.00,,,0.00,VWS V13.01,2012-03-07 22:44:00,
2012-03-07 16:49:00,68.0,51.2,29.94,East,99,3.1,3.1,55,0.00,,,0.00,VWS V13.01,2012-03-07 22:49:00,
2012-03-07 16:54:00,68.0,51.2,29.94,East,97,4.0,4.9,55,0.00,,,0.00,VWS V13.01,2012-03-07 22:54:00,
2012-03-07 16:59:00,68.4,51.1,29.94,ESE,106,6.3,6.3,54,0.00,,,0.00,VWS V13.01,2012-03-07 22:59:00,
2012-03-07 17:04:00,68.7,51.4,29.94,ESE,121,4.0,4.0,54,0.00,,,0.00,VWS V13.01,2012-03-07 23:04:00,
2012-03-07 17:09:00,68.9,51.1,29.94,ESE,118,8.3,8.3,53,0.00,,,0.00,VWS V13.01,2012-03-07 23:09:00,
2012-03-07 17:14:00,69.3,51.4,29.94,SSE,164,4.0,7.6,53,0.00,,,0.00,VWS V13.01,2012-03-07 23:14:00,
2012-03-07 17:19:00,69.4,51.1,29.94,SSE,162,5.8,5.8,52,0.00,,,0.00,VWS V13.01,2012-03-07 23:19:00,
2012-03-07 17:24:00,69.6,51.2,29.94,SSE,165,3.1,3.6,52,0.00,,,0.00,VWS V13.01,2012-03-07 23:24:00,
2012-03-07 17:29:00,69.6,51.2,29.97,SE,143,2.7,6.3,52,0.00,,,0.00,VWS V13.01,2012-03-07 23:29:00,
2012-03-07 17:34:00,69.4,51.6,29.97,SE,136,3.1,3.1,53,0.00,,,0.00,VWS V13.01,2012-03-07 23:34:00,
2012-03-07 17:40:00,69.4,51.6,29.97,SE,136,4.9,4.9,53,0.00,,,0.00,VWS V13.01,2012-03-07 23:40:00,
2012-03-07 17:45:00,69.3,51.4,29.94,East,91,5.8,8.1,53,0.00,,,0.00,VWS V13.01,2012-03-07 23:45:00,
2012-03-07 17:50:00,69.3,51.4,29.94,ESE,117,5.8,5.8,53,0.00,,,0.00,VWS V13.01,2012-03-07 23:50:00,
2012-03-07 17:55:00,69.1,51.2,29.94,East,82,4.0,5.8,53,0.00,,,0.00,VWS V13.01,2012-03-07 23:55:00,
2012-03-07 18:00:00,69.1,51.8,29.97,ESE,107,5.8,5.8,54,0.00,,,0.00,VWS V13.01,2012-03-08 00:00:00,
2012-03-07 18:05:00,69.1,51.8,29.97,SE,127,6.3,6.3,54,0.00,,,0.00,VWS V13.01,2012-03-08 00:05:00,
2012-03-07 18:10:00,69.1,51.2,29.97,SE,126,4.9,5.8,53,0.00,,,0.00,VWS V13.01,2012-03-08 00:10:00,
2012-03-07 18:15:00,69.1,51.2,29.97,ESE,110,7.6,7.6,53,0.00,,,0.00,VWS V13.01,2012-03-08 00:15:00,
2012-03-07 18:20:00,69.3,51.4,29.97,SSE,147,4.0,5.4,53,0.00,,,0.00,VWS V13.01,2012-03-08 00:20:00,
2012-03-07 18:25:00,69.1,51.2,29.97,ESE,122,5.4,6.7,53,0.00,,,0.00,VWS V13.01,2012-03-08 00:25:00,
2012-03-07 18:30:00,69.1,51.2,29.97,ESE,117,6.3,6.3,53,0.00,,,0.00,VWS V13.01,2012-03-08 00:30:00,
2012-03-07 18:35:00,69.1,51.2,29.97,ESE,120,5.8,6.3,53,0.00,,,0.00,VWS V13.01,2012-03-08 00:35:00,
2012-03-07 18:40:00,69.1,51.2,29.97,SE,124,4.9,6.3,53,0.00,,,0.00,VWS V13.01,2012-03-08 00:40:00,
2012-03-07 18:44:00,69.1,51.8,29.97,SE,143,3.1,4.0,54,0.00,,,0.00,VWS V13.01,2012-03-08 00:44:00,
2012-03-07 18:49:00,69.1,51.2,29.97,ESE,118,2.7,4.0,53,0.00,,,0.00,VWS V13.01,2012-03-08 00:49:00,
2012-03-07 18:54:00,69.1,51.2,29.97,ESE,123,4.9,5.4,53,0.00,,,0.00,VWS V13.01,2012-03-08 00:54:00,
2012-03-07 18:59:00,69.1,51.2,29.97,ESE,106,4.0,5.4,53,0.00,,,0.00,VWS V13.01,2012-03-08 00:59:00,
2012-03-07 19:04:00,69.1,51.2,29.97,ESE,107,2.7,4.0,53,0.00,,,0.00,VWS V13.01,2012-03-08 01:04:00,
2012-03-07 19:09:00,68.9,51.1,29.97,ENE,66,5.4,6.3,53,0.00,,,0.00,VWS V13.01,2012-03-08 01:09:00,
2012-03-07 19:14:00,68.9,51.1,29.97,East,81,8.1,8.1,53,0.00,,,0.00,VWS V13.01,2012-03-08 01:14:00,
2012-03-07 19:20:00,68.9,51.6,29.97,East,92,3.6,3.6,54,0.00,,,0.00,VWS V13.01,2012-03-08 01:20:00,
2012-03-07 19:25:00,68.9,51.6,29.97,East,86,3.6,3.6,54,0.00,,,0.00,VWS V13.01,2012-03-08 01:25:00,
2012-03-07 19:30:00,68.9,51.6,29.97,ESE,108,2.2,2.7,54,0.00,,,0.00,VWS V13.01,2012-03-08 01:30:00,
2012-03-07 19:35:00,68.7,51.4,29.97,East,84,0.0,0.0,54,0.00,,,0.00,VWS V13.01,2012-03-08 01:35:00,
2012-03-07 19:40:00,68.5,51.2,29.97,East,84,0.0,0.0,54,0.00,,,0.00,VWS V13.01,2012-03-08 01:40:00,
2012-03-07 19:45:00,68.4,51.6,29.97,East,100,2.7,4.0,55,0.00,,,0.00,VWS V13.01,2012-03-08 01:45:00,
2012-03-07 19:50:00,68.2,51.4,29.97,East,98,2.7,3.6,55,0.00,,,0.00,VWS V13.01,2012-03-08 01:50:00,
2012-03-07 19:55:00,68.4,51.6,29.97,ESE,122,0.0,3.1,55,0.00,,,0.00,VWS V13.01,2012-03-08 01:55:00,
2012-03-07 20:00:00,68.2,51.4,29.97,East,91,0.0,0.0,55,0.00,,,0.00,VWS V13.01,2012-03-08 02:00:00,
2012-03-07 20:05:00,68.2,51.4,29.97,SE,136,2.2,2.2,55,0.00,,,0.00,VWS V13.01,2012-03-08 02:05:00,
2012-03-07 20:10:00,68.2,51.4,29.97,East,80,3.1,4.0,55,0.00,,,0.00,VWS V13.01,2012-03-08 02:10:00,
2012-03-07 20:15:00,68.4,51.6,29.97,SE,131,3.6,3.6,55,0.00,,,0.00,VWS V13.01,2012-03-08 02:15:00,
2012-03-07 20:20:00,68.4,51.6,29.97,ESE,108,3.6,3.6,55,0.00,,,0.00,VWS V13.01,2012-03-08 02:20:00,
2012-03-07 20:25:00,68.5,51.2,29.97,SE,133,3.1,3.6,54,0.00,,,0.00,VWS V13.01,2012-03-08 02:25:00,
2012-03-07 20:30:00,68.5,51.2,29.97,SE,130,2.2,2.2,54,0.00,,,0.00,VWS V13.01,2012-03-08 02:30:00,
2012-03-07 20:35:00,68.7,51.4,29.97,SE,143,2.2,2.7,54,0.00,,,0.00,VWS V13.01,2012-03-08 02:35:00,
2012-03-07 20:40:00,68.7,51.4,29.97,SE,136,2.7,5.4,54,0.00,,,0.00,VWS V13.01,2012-03-08 02:40:00,
2012-03-07 20:45:00,68.5,51.2,29.97,SE,143,2.7,2.7,54,0.00,,,0.00,VWS V13.01,2012-03-08 02:45:00,
2012-03-07 20:50:00,68.7,51.4,29.97,SE,134,4.0,4.9,54,0.00,,,0.00,VWS V13.01,2012-03-08 02:50:00,
2012-03-07 20:55:00,68.7,51.4,29.97,ESE,114,4.0,4.0,54,0.00,,,0.00,VWS V13.01,2012-03-08 02:55:00,
2012-03-07 21:00:00,68.7,51.4,29.97,SE,130,0.0,3.6,54,0.00,,,0.00,VWS V13.01,2012-03-08 03:00:00,
2012-03-07 21:05:00,68.7,51.4,29.97,ESE,117,2.2,4.0,54,0.00,,,0.00,VWS V13.01,2012-03-08 03:05:00,
2012-03-07 21:10:00,68.7,51.4,29.97,SSE,147,4.0,6.3,54,0.00,,,0.00,VWS V13.01,2012-03-08 03:10:00,
2012-03-07 21:15:00,68.7,51.4,29.97,ESE,103,5.8,5.8,54,0.00,,,0.00,VWS V13.01,2012-03-08 03:15:00,
2012-03-07 21:20:00,68.9,51.1,29.97,ESE,107,4.0,4.0,53,0.00,,,0.00,VWS V13.01,2012-03-08 03:20:00,
2012-03-07 21:25:00,69.1,51.2,29.97,East,98,2.7,2.7,53,0.00,,,0.00,VWS V13.01,2012-03-08 03:25:00,
2012-03-07 21:30:00,69.1,51.2,29.97,ENE,69,4.0,4.0,53,0.00,,,0.00,VWS V13.01,2012-03-08 03:30:00,
2012-03-07 21:35:00,69.1,51.2,29.97,East,85,0.0,2.7,53,0.00,,,0.00,VWS V13.01,2012-03-08 03:35:00,
2012-03-07 21:40:00,68.9,51.1,29.97,ESE,118,0.0,0.0,53,0.00,,,0.00,VWS V13.01,2012-03-08 03:40:00,
2012-03-07 21:45:00,68.9,51.1,29.97,ENE,58,2.7,2.7,53,0.00,,,0.00,VWS V13.01,2012-03-08 03:45:00,
2012-03-07 21:46:00,68.9,51.1,29.97,ENE,75,2.7,2.7,53,0.00,,,0.00,VWS V13.01,2012-03-08 03:46:00,
2012-03-07 21:51:00,68.7,50.9,29.97,ENE,74,0.0,0.0,53,0.00,,,0.00,VWS V13.01,2012-03-08 03:51:00,
2012-03-07 21:56:00,68.5,51.2,29.97,East,90,3.6,3.6,54,0.00,,,0.00,VWS V13.01,2012-03-08 03:56:00,
2012-03-07 22:01:00,68.5,51.2,29.97,ESE,109,6.3,6.3,54,0.00,,,0.00,VWS V13.01,2012-03-08 04:01:00,
2012-03-07 22:06:00,68.7,51.4,29.97,SE,127,4.9,4.9,54,0.00,,,0.00,VWS V13.01,2012-03-08 04:06:00,
2012-03-07 22:11:00,68.9,51.1,29.97,ESE,104,4.0,4.0,53,0.00,,,0.00,VWS V13.01,2012-03-08 04:11:00,
2012-03-07 22:16:00,68.9,51.1,29.97,ESE,117,0.0,3.6,53,0.00,,,0.00,VWS V13.01,2012-03-08 04:16:00,
2012-03-07 22:21:00,68.7,50.9,29.97,ESE,117,2.7,3.6,53,0.00,,,0.00,VWS V13.01,2012-03-08 04:21:00,
2012-03-07 22:26:00,68.7,50.9,29.97,ESE,116,4.0,5.8,53,0.00,,,0.00,VWS V13.01,2012-03-08 04:26:00,
2012-03-07 22:31:00,68.7,50.9,29.97,SE,125,3.6,4.9,53,0.00,,,0.00,VWS V13.01,2012-03-08 04:31:00,
2012-03-07 22:36:00,68.7,51.4,29.97,East,81,4.0,4.0,54,0.00,,,0.00,VWS V13.01,2012-03-08 04:36:00,
2012-03-07 22:41:00,68.7,51.4,29.97,ESE,120,3.1,3.6,54,0.00,,,0.00,VWS V13.01,2012-03-08 04:41:00,
2012-03-07 22:46:00,68.5,51.2,29.97,ESE,119,4.0,4.0,54,0.00,,,0.00,VWS V13.01,2012-03-08 04:46:00,
2012-03-07 22:51:00,68.7,51.4,29.97,East,95,0.0,0.0,54,0.00,,,0.00,VWS V13.01,2012-03-08 04:51:00,
2012-03-07 22:56:00,68.7,51.4,29.97,ESE,105,0.0,0.0,54,0.00,,,0.00,VWS V13.01,2012-03-08 04:56:00,
2012-03-07 23:00:00,68.5,51.2,29.97,East,94,5.8,8.3,54,0.00,,,0.00,VWS V13.01,2012-03-08 05:00:00,
2012-03-07 23:05:00,68.5,51.2,29.97,ESE,117,2.7,3.6,54,0.00,,,0.00,VWS V13.01,2012-03-08 05:05:00,
2012-03-07 23:10:00,68.5,51.2,29.97,SE,124,4.0,5.8,54,0.00,,,0.00,VWS V13.01,2012-03-08 05:10:00,
2012-03-07 23:15:00,68.5,51.2,29.97,ESE,103,5.4,5.8,54,0.00,,,0.00,VWS V13.01,2012-03-08 05:15:00,
2012-03-07 23:20:00,68.5,51.2,29.97,East,100,6.3,6.3,54,0.00,,,0.00,VWS V13.01,2012-03-08 05:20:00,
2012-03-07 23:25:00,68.7,51.4,29.97,ENE,69,0.0,4.0,54,0.00,,,0.00,VWS V13.01,2012-03-08 05:25:00,
2012-03-07 23:30:00,68.7,51.4,29.97,East,94,4.9,4.9,54,0.00,,,0.00,VWS V13.01,2012-03-08 05:30:00,
2012-03-07 23:35:00,68.7,51.4,29.97,East,92,4.0,4.0,54,0.00,,,0.00,VWS V13.01,2012-03-08 05:35:00,
2012-03-07 23:40:00,68.5,51.8,29.97,ESE,108,3.6,5.4,55,0.00,,,0.00,VWS V13.01,2012-03-08 05:40:00,
2012-03-07 23:45:00,68.5,51.8,29.97,ESE,121,3.1,3.1,55,0.00,,,0.00,VWS V13.01,2012-03-08 05:45:00,
2012-03-07 23:50:00,68.4,51.6,29.97,ESE,112,3.1,5.4,55,0.00,,,0.00,VWS V13.01,2012-03-08 05:50:00,
2012-03-07 23:55:00,68.4,51.6,29.97,SE,124,2.2,2.7,55,0.00,,,0.00,VWS V13.01,2012-03-08 05:55:00,